Location: Caracas
(10.5033°N, 66.8422°W)
Time: 05:18:36
(UTC-04:00)

N. Korean satellite - Visible Passes

Search period start: 16 January 2018 00:00
Search period end: 26 January 2018 00:00
Orbit: 459 x 515 km, 97.2° (Epoch: 15 January)

Date Brightness Start Highest point End Pass type
(mag) Time Alt. Az. Time Alt. Az. Time Alt. Az.
16 Jan 9.2 06:24:29 10° NE 06:27:22 25° E 06:30:17 10° SSE visible
17 Jan 10.4 06:03:02 10° E 06:03:44 10° E 06:04:26 10° ESE visible
17 Jan 9.9 19:28:26 10° SW 19:30:49 16° W 19:33:11 10° WNW visible
18 Jan 8.3 19:03:45 10° S 19:07:12 38° W 19:10:37 10° NNW visible
20 Jan 9.3 06:23:20 10° NE 06:26:13 24° E 06:29:07 10° SSE visible
21 Jan 10.5 06:02:03 10° E 06:02:35 10° E 06:03:06 10° ESE visible
21 Jan 9.9 19:27:17 10° SW 19:29:40 17° W 19:32:03 10° WNW visible
22 Jan 8.2 19:02:36 10° S 19:06:03 39° W 19:09:26 10° NNW visible
24 Jan 9.4 06:22:08 10° NE 06:25:01 24° E 06:27:55 10° SSE visible
25 Jan 10.6 06:01:05 10° E 06:01:22 10° E 06:01:39 10° ESE visible
25 Jan 9.8 19:26:04 10° SW 19:28:29 17° W 19:30:52 10° WNW visible
